Regional Weather Roundup
Issued by NWS

Home | Current Version | Previous Version | Text Only | Print | Product List | Glossary On
Versions: 1 2 3 4 5 6 7 8 9 10 11 12 13 14 15 16 17 18 19 20 21 22 23 24 25 26 27 28 29 30 31 32 33 34 35 36 37 38 39 40 41 42 43 44 45 46 47 48 49 50
000
ASUS43 KMKX 290200
RWRWI

WISCONSIN REGIONAL WEATHER ROUNDUP
NATIONAL WEATHER SERVICE MILWAUKEE/SULLIVAN WI
900 PM CDT SUN MAY 28 2017

NOTE: "FAIR" INDICATES FEW OR NO CLOUDS BELOW 12,000 FEET WITH NO
SIGNIFICANT WEATHER AND/OR OBSTRUCTIONS TO VISIBILITY.

WIZ001-002-006>008-014>016-023>028-290300-
NORTHWEST WISCONSIN

CITY           SKY/WX    TMP DP  RH WIND       PRES   REMARKS
SUPERIOR ARPT  NOT AVBL
ASHLAND        CLOUDY    55  49  80 SW3       29.65S
HAYWARD        PTCLDY    58  47  66 SW8       29.67F
SIREN          CLOUDY    55  50  83 CALM      29.70F
CUMBERLAND     CLEAR     54  46  76 W6        29.71F
RICE LAKE      CLEAR     57  52  82 W5        29.72F
CHETEK         CLEAR     55  52  90 CALM      29.71F
LADYSMITH      PTCLDY    55  49  79 SW5       29.71S
EAU CLAIRE     NOT AVBL
MENOMONIE      CLEAR     59  48  66 W3        29.72F
NEW RICHMOND   PTCLDY    57  50  76 CALM      29.72F
OSCEOLA        PTCLDY    60  51  72 CALM      29.74F
$$

WIZ003>005-009-010-017-018-290300-
NORTH CENTRAL WISCONSIN

CITY           SKY/WX    TMP DP  RH WIND       PRES   REMARKS
MANITOWISH WTR PTCLDY    53  52  97 SW3       29.66F
ARBOR VITAE    CLEAR     55  51  88 CALM      29.67S
WOODRUFF       CLEAR     55  51  88 CALM      29.67S
RHINELANDER    CLEAR     52  48  86 W5        29.68S
EAGLE RIVER    CLEAR     54  45  72 W5        29.67S
LAND O LAKES   CLEAR     53  51  94 CALM      29.68S
PHILLIPS       MOCLDY    57  51  79 CALM      29.67F
TOMAHAWK       CLEAR     54  47  77 CALM      29.70R
MEDFORD        CLOUDY    56  47  71 SW5       29.69F
MERRILL        CLEAR     56  52  88 W9        29.70S
$$

WIZ029-030-035-036-043>047-290300-
CENTRAL WISCONSIN

CITY           SKY/WX    TMP DP  RH WIND       PRES   REMARKS
WAUSAU         LGT RAIN  57  50  77 W17G23    29.69R
MOSINEE        MOCLDY    59  46  63 W12G23    29.72S
MARSHFIELD     CLOUDY    55  49  80 NW6       29.71R
STEVENS POINT  CLEAR     60  47  60 NW5       29.70S
WAUPACA        MOCLDY    67  45  44 W3        29.69S
WAUTOMA        CLEAR     65  47  52 W7        29.70
WISC RAPIDS    MOCLDY    61  49  64 N12G22    29.72R
CAMP DOUGLAS   NOT AVBL
$$

WIZ011>013-019>022-031-037>040-048>050-290300-
NORTHEAST WISCONSIN

CITY           SKY/WX    TMP DP  RH WIND       PRES   REMARKS
ANTIGO         PTCLDY    55  47  74 W8        29.69S
SHAWANO        CLOUDY    67  45  44 W10G17    29.68R
OCONTO         CLEAR     64  46  51 NW5       29.65R
STURGEON BAY   CLEAR     59  54  83 MISG      29.67R
GREEN BAY      CLEAR     63  51  65 W8        29.68R
MANITOWOC      NOT AVBL
APPLETON       PTCLDY    63  43  48 W3        29.68R
CLINTONVILLE   CLOUDY    66  43  42 NW10G16   29.68R
OSHKOSH        CLEAR     65  46  50 CALM      29.69R
$$

WIZ032>034-041-042-053>061-290300-
SOUTHWEST WISCONSIN

CITY           SKY/WX    TMP DP  RH WIND       PRES   REMARKS
LA CROSSE      PTCLDY    66  47  50 W7        29.72R
SPARTA         CLEAR     66  44  45 W5        29.72S
VIROQUA        CLEAR     64  43  46 CALM      29.74F
BOSCOBEL       CLEAR     60  48  64 CALM      29.74S
PRAIRIE DU CHI CLEAR     68  41  36 W5        29.74S
PLATTEVILLE    PTCLDY    66  47  49 W5        29.76F
$$

WIZ056-057-062-063-064-067-068-290300-
SOUTH CENTRAL WISCONSIN

CITY           SKY/WX    TMP DP  RH WIND       PRES   REMARKS
REEDSBURG      CLEAR     66  45  46 W6        29.72S
BARABOO/DELLS  CLEAR     64  42  45 W5        29.72S
LONE ROCK      CLEAR     65  45  48 SW3       29.73S
MINERAL POINT  CLEAR     64  45  48 W5        29.76S
MADISON        PTCLDY    66  45  46 W3        29.73S
MIDDLETON      CLEAR     66  45  46 CALM      29.74S
WATERTOWN      PTCLDY    65  48  54 SW5       29.72F
MONROE         CLEAR     66  45  45 W7        29.76R
JANESVILLE     PTCLDY    66  46  48 CALM      29.75R
$$

WIZ051-052-058>065-066-070>072-290300-
SOUTHEAST WISCONSIN

CITY           SKY/WX    TMP DP  RH WIND       PRES   REMARKS
MILWAUKEE      PTCLDY    71  45  39 W9        29.72R
WAUKESHA       NOT AVBL
MILWAUKEE/TIMM CLEAR     68  43  40 W8        29.73R
RACINE         CLEAR     68  46  45 W6        29.74R
KENOSHA        CLEAR     63  47  55 W8        29.74R
FOND DU LAC    CLEAR     64  45  49 SW6       29.70R
SHEBOYGAN      CLEAR     64  51  62 W3        29.70R
WEST BEND      CLEAR     64  45  48 W6        29.71S
JUNEAU         CLEAR     65  47  52 W7        29.73R
$$

LSZ147-162-290300-
LAKE SUPERIOR

STATION/POSITION TIME  TEMP    WIND        PRES    WAVE
                       AIR SEA DIR/SP/G            HT/PER
                 (UTC) (F)     (DEG/KT/KT) (MB)    (FT/S)
W MID LAKE BUOY  0050   41 38  200/  6/  6 1003.5F   0
DEVILS ISLAND    0100   50     210/  8/  9 1003.8R
PORT WING        0140   58     230/  4/  6 1004.1F
SAXON HARBOR     0140   55     200/  1/  2 1003.7F
$$

LMZ867-665-643>646-290300-
LAKE MICHIGAN

STATION/POSITION TIME  TEMP    WIND        PRES    WAVE
                       AIR SEA DIR/SP/G            HT/PER
                 (UTC) (F)     (DEG/KT/KT) (MB)    (FT/S)
CHAMBERS ISLAND  0140   53        CALM     1004.1S
N MID LAKE BUOY  0050   44 42   60/  2/  6 1005.7R   0
NORTHPORT PIER   0140   49     110/  6/ 11 1004.4S
KEWAUNEE LAKESHO 0124   66     280/  6/ 10 1004.0
SHEBOYGAN LAKESH 0100   59     200/  7/  7 1004.7R
PORT WASHINGTON  0130   69     270/  2/  6 1006.8R
ATWATER BUOY     0009          150/ 10/ 12 1005.8R
MILWAUKEE LAKESH 0130   72     280/  9/ 11   N/A
S MID LAKE BUOY  0050   52 50  190/ 10/ 10 1006.6F   0
KENOSHA   LAKESH 0100   73     260/  9/ 13 1006.4
$$

TC  - TEMPERATURE IN CELSIUS
VSB - VISIBILITY IN STATUTE MILES
WCI - WIND CHILL INDEX
HX  - HEAT INDEX





USA.gov is the U.S. government's official web portal to all federal, state and local government web resources and services.